GFSNIL_con_mlcape_057.txt.gz
CAPE
289 343 391 1263 1731 1623 1583 1497 1341 1182 1226 1375 1488 1271 1125 1010 932 795 648 598 337 194
317 264 547 1789 1805 1654 1549 1485 1254 1116 1231 1483 1210 1146 908 854 712 583 395 271 374 141
924 792 1599 2008 1925 1651 1347 1174 1125 1158 1361 1365 1126 972 829 530 395 328 250 213 132 65
1406 1569 2411 2207 1854 1472 1279 1222 1308 1307 1482 1117 833 705 494 284 288 312 190 145 64 42
1698 2479 2394 2133 2088 1850 1477 1521 1416 1333 942 814 645 491 175 238 299 204 50 29 0 28
2244 2324 1880 1721 1734 1882 1786 1516 1216 926 672 343 413 272 240 95 197 180 29 10 0 0
2040 1731 1143 930 888 857 814 736 658 474 183 360 406 128 4 40 139 122 73 92 25 1
1514 1253 924 690 649 364 305 258 237 132 142 185 164 47 20 204 167 105 8 5 0 0
1227 1032 820 568 411 251 210 113 67 62 29 2 3 2 94 121 115 15 0 0 0 1
971 793 545 318 176 153 147 165 74 39 1 0 1 0 1 15 79 36 2 0 0 9
650 459 309 203 91 67 130 57 62 91 13 0 0 0 0 10 74 26 0 0 0 7
385 289 246 75 42 92 62 60 114 92 2 0 0 0 0 0 38 6 0 0 1 1
255 145 159 13 89 58 37 61 113 105 3 0 0 0 0 1 8 0 0 0 0 0
303 107 33 139 100 76 79 93 136 60 0 0 0 0 0 6 11 0 0 0 0 0

GFSNIL_con_mlcape_060.txt.gz
CAPE
0 0 0 5 155 666 1293 1398 1313 1349 1205 1062 1191 1239 1049 1145 880 596 598 510 365 196
0 1 3 50 510 1042 1378 1374 1336 1273 1050 1006 1133 1089 1039 965 802 696 518 397 286 79
0 49 160 411 616 1067 1348 1416 1273 1032 925 1005 1151 908 848 736 638 552 356 153 113 88
57 254 711 798 731 898 1423 1361 1209 987 939 1124 982 756 683 562 353 234 81 117 39 5
516 856 978 899 778 1427 1464 1205 1040 1015 1008 1099 926 678 510 256 119 123 78 40 12 3
773 961 1152 1452 1641 1491 1182 1031 1000 976 1075 893 678 485 228 66 119 131 72 0 0 0
1204 1522 1521 1779 1752 1365 1052 1059 1027 1071 809 661 475 224 71 59 11 111 34 0 0 0
1552 1610 1586 1608 1476 1105 1154 1164 1052 696 375 247 228 89 20 1 6 12 2 4 0 0
1178 1394 1273 1042 952 986 862 716 497 206 43 56 133 51 9 20 27 23 11 0 0 0
989 991 760 403 261 141 144 145 36 0 0 5 2 0 9 15 14 12 3 0 0 0
776 585 423 239 130 72 30 12 0 0 0 0 0 0 3 1 5 0 0 0 0 0
477 320 138 91 49 23 12 2 4 0 0 0 0 0 0 0 0 0 0 0 0 1
310 203 79 24 3 8 8 13 1 2 0 0 0 0 0 0 0 0 0 0 0 0
177 78 13 3 6 2 6 10 3 0 0 0 0 0 0 0 1 2 0 0 0 0

GFSNIL_con_mlcape_063.txt.gz
CAPE
98 107 47 0 0 0 0 153 630 1239 1244 1203 1143 1042 887 765 697 635 445 304 218 199
94 18 0 0 0 0 98 431 931 1225 1221 1219 1136 982 940 808 791 647 394 331 222 201
0 0 0 0 0 101 312 684 1089 1236 1186 1088 924 993 883 818 654 456 346 288 194 77
0 0 0 4 93 265 539 911 1172 1241 1152 882 899 901 756 711 542 493 358 171 74 13
0 1 25 61 280 510 644 1088 1200 1195 963 853 802 794 663 614 449 362 110 22 8 0
2 109 249 326 726 815 771 967 1188 1080 887 835 801 601 536 435 191 45 7 6 0 0
429 621 577 839 819 693 812 1274 1187 1017 871 878 783 599 373 158 17 11 13 0 0 0
799 968 1044 982 933 1026 1357 1170 807 860 852 890 683 458 184 1 0 0 7 0 0 0
875 978 1246 1420 1241 1388 1122 843 820 887 744 536 431 145 3 8 0 3 2 0 0 0
1298 1298 1155 1120 1259 1216 902 805 805 521 277 163 21 0 10 10 12 8 2 0 0 0
1010 917 854 882 884 788 723 737 382 88 0 0 0 2 1 5 10 2 0 0 0 0
736 641 605 627 621 490 371 207 11 0 0 0 0 0 0 2 0 0 0 0 0 0
389 372 231 133 85 31 13 0 0 0 0 0 0 0 0 0 0 0 0 0 0 0
155 180 134 52 23 0 0 0 0 0 0 0 0 0 0 0 0 0 0 1 0 0

GFSNIL_con_mlcape_069.txt.gz
CAPE
0 0 0 38 203 257 341 574 935 1060 985 609 533 534 710 847 1069 1079 893 820 529 337
0 0 0 5 172 194 287 536 686 692 413 531 406 643 1028 1318 1422 1168 959 773 608 442
0 0 0 4 68 122 292 536 613 455 611 344 507 1267 1517 1604 1443 1272 835 533 567 533
0 0 0 0 0 72 354 532 531 463 371 395 862 1651 1655 1569 1311 1049 567 436 381 572
2 0 0 0 0 156 345 553 534 572 451 716 1474 1642 1577 1434 1105 775 546 512 629 573
73 0 0 0 116 321 550 606 522 527 585 1112 1590 1621 1517 1338 1050 721 543 512 689 566
250 0 4 94 448 596 689 594 599 664 1071 1533 1696 1548 1376 1213 738 610 502 491 605 344
617 0 69 392 668 718 567 625 854 1212 1554 1743 1579 1410 1256 871 648 676 528 438 267 192
927 22 255 696 785 714 642 916 1292 1500 1644 1641 1417 921 746 722 617 612 415 219 164 101
1230 588 546 922 865 662 690 1070 1304 1606 1618 1631 1404 473 608 575 580 373 279 312 216 84
1141 1196 1149 1134 993 1047 1044 1245 1369 1530 1670 1591 848 379 399 369 251 233 209 229 240 167
852 1197 1133 1020 1294 1229 1155 1332 1286 1478 1147 815 339 165 170 31 181 109 85 106 115 182
420 1129 1287 1457 1185 1026 1141 1117 934 602 905 519 354 0 0 103 113 58 52 27 1 0
529 1041 1079 1042 953 875 670 478 503 368 102 72 10 0 0 2 84 55 5 0 0 0

GFSNIL_con_mlcape_072.txt.gz
CAPE
0 0 0 0 0 16 324 721 1657 2529 2446 2261 2335 2308 2226 1976 1589 1624 1703 1947 1966 1586
0 0 0 1 26 35 255 596 1325 1919 2198 2447 2312 2254 2004 1530 1618 1811 2094 2232 2035 1560
0 6 5 20 14 37 234 708 826 1799 2174 2338 2167 1732 1695 1562 2017 2298 2263 1983 2128 1420
0 0 58 139 98 209 620 704 631 1399 1890 1950 1658 1704 1933 2060 2308 2435 2333 1957 1477 1285
0 0 1 114 169 210 371 635 781 1218 1574 1465 1330 1898 2276 2390 2147 2272 2188 1368 1227 1100
0 0 0 120 369 218 331 546 828 1101 1365 1257 1309 1987 2187 2142 2126 2181 1947 1325 1164 1167
0 0 0 186 558 245 428 553 894 1222 1437 1310 1512 1893 1995 2074 2092 1950 1542 1277 1084 1181
0 0 0 186 616 211 613 825 1279 1545 1410 1367 1662 1849 1962 1963 2090 1942 1404 1098 1070 1016
0 0 0 256 501 419 993 1483 1680 1595 1420 1713 1675 1546 1854 2048 2062 1425 1246 1014 863 660
0 1 0 328 357 721 1641 1996 1851 1741 1655 2096 1778 1509 1627 1613 1663 1440 1291 923 750 516
3 1 0 563 439 1389 2058 2171 2172 2121 2135 2269 1895 1146 1171 1058 1457 1257 992 823 613 471
19 0 0 707 1035 1944 2085 2249 2346 2270 2302 2254 1252 767 629 875 1148 687 581 451 547 513
0 13 1 1092 1703 1950 1845 2073 2274 2268 2271 2340 1082 181 597 723 329 428 328 463 473 80
0 4 470 1173 1287 1391 1741 1967 2052 2043 1814 1100 672 149 348 125 216 228 237 280 377 152

GFSNIL_con_mlcape_075.txt.gz
CAPE
0 0 0 0 0 0 4 27 784 2896 2838 2634 2438 2177 2162 2376 2844 2763 2579 2212 1924 2143
0 13 7 26 73 44 107 115 134 1458 3394 3029 2910 2811 2914 2820 2975 2637 2433 1899 2210 2176
0 0 2 114 225 170 239 218 341 624 2002 3203 3154 3269 3292 2916 2860 2302 2099 1855 2211 2494
0 0 0 3 43 223 574 654 564 526 1500 2389 3251 3445 3237 2775 2228 2010 2032 2313 2722 2634
0 0 0 4 0 60 278 619 871 935 731 1656 2492 2969 2871 2531 1554 2205 2544 2656 2437 2444
0 0 0 4 0 1 133 504 504 664 898 1460 2074 2735 2763 2305 1812 2451 2419 2526 2325 2093
0 0 0 0 5 0 25 585 474 758 862 1436 2202 2363 2405 2173 2354 2489 2371 2477 2094 1700
0 0 0 0 0 3 7 893 537 647 999 1456 1920 2012 2191 2360 2455 2602 2430 2397 1862 1655
0 0 0 0 0 3 47 961 658 722 1033 1552 2007 1654 2013 2500 2544 2646 2319 2112 1788 1427
1 0 1 5 3 13 84 1004 930 1189 1507 1945 2476 1371 1650 2179 2786 2560 2296 1858 1629 1354
0 0 8 29 42 69 179 1024 1114 1731 2438 2588 2589 1262 1598 1990 2609 2323 1906 1758 1442 1094
0 0 0 77 109 96 446 984 1346 2014 2241 2309 2014 1292 1642 1962 2170 1977 1790 1500 1280 1028
0 2 38 96 77 49 453 963 1735 2228 2090 2193 1989 1195 1587 1842 1701 1642 1428 1172 746 437
0 1 57 117 38 1 153 1212 1914 1975 2129 2523 1789 1282 1442 1323 1402 1222 975 709 775 500